Temp
-11 -11 -11 -11 -11 -11 -10 -10 -11 -10 -10 -10 -10 -10 -10 -10 -11 -11 -11 -11 -12 -12 -12 -12 -12 -12 -12 -12 -12 -11 -11 -11 -11 -11 -11 -11 -11 -11 -10 -10 -11 -11 -11
-11 -11 -11 -11 -11 -11 -11 -11 -11 -11 -11 -11 -11 -10 -10 -10 -11 -12 -12 -12 -12 -12 -12 -12 -12 -12 -12 -12 -11 -11 -11 -11 -11 -11 -11 -11 -11 -11 -11 -11 -10 -11 -11
-12 -11 -11 -11 -11 -11 -11 -12 -11 -11 -11 -11 -11 -10 -10 -11 -11 -12 -12 -12 -12 -12 -12 -12 -12 -12 -12 -12 -12 -12 -12 -11 -11 -11 -11 -11 -11 -11 -11 -11 -11 -12 -12
-12 -12 -11 -12 -12 -11 -11 -11 -11 -11 -12 -12 -11 -11 -11 -11 -12 -12 -12 -13 -13 -13 -12 -12 -12 -12 -12 -12 -12 -12 -12 -12 -12 -12 -12 -12 -12 -12 -12 -12 -12 -12 -12
-11 -12 -12 -12 -12 -11 -11 -11 -11 -12 -12 -12 -12 -12 -11 -11 -12 -12 -13 -13 -13 -13 -13 -13 -12 -12 -12 -12 -12 -12 -12 -12 -12 -12 -12 -12 -12 -12 -13 -13 -12 -12 -12
-12 -12 -12 -12 -11 -11 -12 -12 -12 -13 -12 -12 -12 -12 -11 -12 -12 -13 -14 -14 -13 -13 -13 -13 -12 -12 -12 -12 -12 -12 -12 -12 -12 -12 -12 -12 -12 -12 -12 -13 -12 -12 -12
-12 -12 -12 -11 -11 -11 -11 -12 -12 -12 -13 -13 -12 -12 -12 -12 -13 -14 -14 -14 -14 -14 -13 -13 -12 -12 -12 -12 -12 -12 -12 -12 -12 -13 -13 -13 -13 -13 -12 -13 -13 -13 -13
-12 -12 -12 -11 -11 -11 -11 -11 -12 -12 -12 -12 -12 -12 -12 -12 -14 -15 -15 -15 -14 -13 -13 -13 -13 -12 -12 -12 -12 -12 -12 -13 -13 -13 -14 -14 -14 -14 -14 -13 -13 -13 -13
-12 -12 -12 -11 -11 -12 -11 -11 -12 -12 -12 -12 -12 -12 -13 -14 -16 -15 -14 -14 -14 -13 -13 -13 -13 -12 -12 -12 -12 -13 -13 -13 -13 -13 -13 -14 -14 -14 -14 -14 -14 -14 -14
-11 -12 -12 -10 -11 -11 -11 -11 -11 -12 -12 -13 -13 -13 -16 -16 -15 -14 -14 -14 -13 -13 -13 -13 -13 -13 -13 -13 -13 -13 -13 -13 -13 -13 -13 -14 -14 -14 -14 -14 -14 -14 -14
-11 -12 -12 -11 -11 -11 -10 -11 -11 -12 -13 -14 -15 -17 -16 -15 -14 -14 -14 -13 -13 -13 -13 -14 -14 -13 -13 -13 -14 -14 -14 -14 -14 -14 -14 -14 -14 -14 -14 -14 -14 -15 -15
-11 -11 -12 -11 -11 -11 -11 -11 -12 -13 -14 -15 -17 -16 -16 -15 -14 -14 -13 -14 -14 -14 -14 -14 -14 -14 -14 -14 -14 -14 -14 -14 -14 -14 -15 -14 -14 -14 -15 -15 -15 -15 -15
-11 -12 -12 -11 -11 -11 -11 -12 -12 -13 -14 -15 -15 -16 -15 -15 -14 -14 -14 -14 -14 -14 -14 -14 -14 -14 -14 -14 -14 -14 -14 -15 -15 -15 -15 -15 -15 -15 -15 -15 -16 -16 -16
-12 -12 -12 -12 -12 -12 -12 -13 -13 -14 -15 -16 -16 -15 -15 -15 -15 -14 -14 -14 -14 -14 -14 -14 -14 -14 -15 -15 -14 -15 -15 -15 -15 -15 -15 -15 -15 -15 -15 -16 -16 -16 -16
-15 -14 -15 -14 -13 -13 -14 -15 -15 -15 -15 -15 -15 -15 -15 -15 -14 -14 -14 -15 -14 -14 -14 -15 -15 -15 -15 -15 -15 -15 -15 -15 -15 -15 -16 -16 -16 -16 -16 -16 -16 -16 -17
-15 -15 -15 -15 -15 -15 -15 -15 -15 -15 -15 -15 -15 -15 -15 -14 -14 -14 -14 -14 -15 -15 -15 -15 -15 -15 -15 -15 -15 -15 -15 -15 -16 -16 -16 -16 -16 -16 -16 -16 -16 -17 -17
-15 -15 -15 -15 -15 -15 -15 -15 -15 -15 -15 -15 -15 -15 -15 -15 -15 -14 -15 -15 -15 -15 -15 -15 -15 -15 -15 -16 -16 -16 -16 -16 -16 -17 -17 -17 -17 -17 -17 -17 -17 -17 -17
-15 -15 -15 -15 -15 -15 -15 -15 -15 -15 -15 -15 -15 -15 -15 -15 -15 -15 -15 -15 -15 -15 -15 -15 -15 -16 -16 -16 -16 -16 -17 -17 -17 -17 -18 -18 -18 -18 -18 -18 -18 -18 -18
-15 -15 -15 -15 -15 -15 -15 -15 -15 -15 -15 -15 -15 -15 -15 -15 -14 -14 -15 -15 -15 -15 -15 -15 -16 -16 -16 -17 -17 -17 -17 -17 -18 -18 -18 -18 -19 -19 -19 -19 -19 -19 -19
-15 -15 -15 -15 -15 -15 -14 -14 -14 -14 -15 -15 -15 -14 -14 -14 -15 -15 -15 -15 -15 -15 -16 -16 -16 -17 -17 -17 -17 -18 -18 -18 -18 -19 -19 -19 -19 -19 -19 -19 -19 -19 -19
-15 -15 -15 -16 -16 -15 -15 -15 -15 -15 -15 -15 -15 -15 -15 -15 -15 -15 -15 -16 -16 -16 -16 -17 -17 -17 -18 -18 -19 -19 -19 -19 -19 -19 -19 -20 -20 -20 -20 -20 -20 -20 -20
-15 -15 -15 -16 -16 -16 -16 -16 -15 -15 -15 -15 -15 -15 -15 -15 -15 -16 -16 -16 -16 -16 -17 -17 -18 -18 -19 -19 -19 -19 -19 -19 -19 -20 -20 -20 -20 -20 -20 -20 -21 -21 -21
-15 -15 -15 -15 -15 -15 -15 -15 -15 -15 -15 -15 -15 -15 -15 -16 -16 -16 -16 -16 -17 -17 -17 -18 -18 -19 -19 -19 -19 -19 -19 -20 -20 -20 -20 -20 -20 -20 -21 -21 -22 -22 -22
-15 -15 -15 -15 -16 -15 -15 -15 -15 -15 -15 -16 -15 -16 -16 -16 -16 -16 -16 -17 -17 -18 -18 -18 -19 -19 -19 -19 -19 -20 -20 -20 -19 -19 -20 -20 -20 -21 -21 -22 -22 -22 -22
-15 -15 -15 -16 -16 -16 -15 -15 -15 -16 -16 -16 -16 -16 -16 -16 -16 -16 -17 -17 -18 -19 -19 -20 -19 -19 -19 -19 -20 -19 -19 -19 -20 -20 -20 -21 -21 -22 -22 -22 -22 -23 -23
-15 -15 -15 -15 -16 -16 -16 -16 -16 -16 -16 -16 -16 -16 -16 -16 -17 -17 -18 -18 -19 -19 -19 -19 -19 -19 -19 -19 -19 -19 -20 -20 -20 -21 -21 -21 -22 -22 -23 -23 -23 -24 -24
Height
5831 5832 5834 5835 5836 5837 5838 5838 5839 5839 5840 5840 5841 5841 5840 5840 5840 5841 5841 5842 5843 5844 5844 5843 5842 5841 5841 5838 5838 5837 5836 5836 5835 5834 5833 5833 5831 5831 5830 5829 5828 5827 5827
5828 5829 5829 5831 5832 5834 5834 5835 5835 5835 5836 5837 5838 5837 5836 5837 5836 5837 5838 5839 5840 5841 5842 5842 5841 5841 5838 5837 5836 5835 5835 5834 5832 5831 5831 5830 5830 5829 5827 5828 5828 5826 5825
5822 5825 5826 5825 5826 5827 5828 5830 5831 5832 5832 5832 5832 5833 5831 5833 5831 5833 5834 5835 5836 5839 5840 5840 5840 5837 5836 5836 5834 5833 5833 5831 5830 5830 5828 5826 5825 5825 5824 5825 5823 5823 5822
5818 5820 5821 5821 5821 5822 5823 5824 5826 5827 5828 5827 5828 5828 5828 5829 5829 5829 5829 5831 5834 5835 5836 5837 5835 5836 5834 5833 5832 5831 5830 5828 5827 5826 5825 5824 5822 5821 5821 5821 5821 5819 5818
5812 5813 5815 5816 5817 5818 5819 5821 5821 5822 5822 5823 5823 5824 5824 5827 5826 5826 5827 5828 5830 5833 5833 5833 5834 5833 5832 5831 5829 5828 5827 5824 5823 5823 5822 5820 5819 5819 5818 5818 5817 5816 5816
5806 5807 5809 5809 5810 5811 5812 5815 5816 5816 5817 5818 5819 5820 5821 5822 5822 5824 5825 5827 5828 5830 5829 5831 5831 5830 5830 5828 5827 5825 5823 5821 5819 5818 5817 5816 5816 5816 5815 5814 5813 5812 5811
5801 5802 5803 5804 5804 5804 5804 5808 5809 5811 5811 5813 5814 5816 5817 5818 5818 5820 5822 5824 5823 5823 5827 5828 5826 5825 5825 5824 5824 5822 5821 5817 5815 5815 5813 5812 5811 5810 5811 5809 5807 5807 5806
5797 5797 5797 5799 5796 5795 5797 5802 5804 5804 5806 5808 5809 5811 5813 5815 5816 5818 5820 5821 5821 5822 5823 5824 5823 5822 5821 5821 5819 5817 5815 5813 5812 5810 5809 5808 5806 5805 5804 5803 5801 5801 5800
5793 5793 5791 5789 5793 5788 5791 5795 5798 5799 5802 5803 5804 5808 5811 5812 5816 5819 5820 5820 5820 5821 5821 5821 5821 5820 5819 5817 5814 5812 5811 5809 5807 5807 5807 5804 5803 5799 5796 5795 5794 5794 5792
5791 5789 5791 5783 5774 5779 5786 5789 5792 5794 5798 5801 5802 5805 5808 5813 5816 5816 5818 5819 5819 5818 5817 5815 5815 5816 5816 5814 5811 5809 5807 5804 5802 5801 5800 5799 5796 5794 5792 5790 5789 5787 5785
5783 5784 5781 5778 5771 5777 5782 5784 5786 5789 5794 5798 5800 5805 5809 5812 5814 5815 5816 5817 5816 5815 5815 5813 5812 5811 5811 5810 5808 5806 5805 5802 5798 5796 5792 5791 5789 5788 5785 5783 5781 5779 5777
5777 5776 5774 5774 5776 5777 5781 5784 5782 5787 5792 5796 5799 5803 5807 5811 5813 5813 5813 5815 5813 5811 5811 5810 5810 5808 5808 5807 5805 5802 5799 5796 5794 5792 5789 5787 5784 5781 5777 5773 5771 5769 5767
5770 5768 5769 5773 5776 5778 5781 5782 5785 5788 5791 5796 5801 5804 5807 5809 5810 5810 5810 5809 5809 5809 5808 5809 5807 5804 5804 5802 5801 5799 5796 5794 5790 5786 5784 5781 5778 5775 5771 5768 5765 5760 5757
5767 5766 5767 5768 5770 5775 5779 5783 5786 5789 5793 5798 5800 5804 5805 5806 5806 5807 5806 5806 5805 5806 5805 5803 5802 5802 5799 5797 5796 5792 5791 5788 5784 5779 5776 5772 5769 5766 5764 5761 5757 5754 5751
5767 5769 5768 5770 5776 5780 5780 5784 5787 5789 5796 5799 5800 5799 5804 5803 5803 5803 5803 5803 5803 5800 5800 5799 5798 5797 5793 5791 5789 5785 5782 5779 5774 5771 5767 5763 5759 5756 5754 5750 5747 5744 5741
5766 5769 5772 5775 5779 5782 5784 5786 5790 5790 5795 5797 5797 5796 5801 5800 5799 5799 5799 5800 5799 5798 5795 5794 5793 5791 5787 5784 5780 5777 5773 5770 5766 5761 5756 5752 5749 5746 5743 5740 5737 5735 5732
5769 5771 5774 5776 5779 5783 5785 5785 5788 5789 5792 5794 5793 5795 5796 5795 5795 5797 5797 5795 5793 5792 5790 5789 5787 5784 5779 5775 5771 5768 5764 5760 5756 5752 5747 5742 5738 5735 5732 5729 5726 5723 5720
5774 5777 5778 5781 5783 5785 5785 5786 5789 5790 5790 5790 5790 5792 5794 5795 5796 5794 5791 5789 5787 5787 5785 5783 5779 5775 5771 5767 5763 5759 5754 5750 5745 5741 5736 5732 5728 5725 5721 5717 5714 5711 5708
5776 5779 5779 5780 5782 5783 5785 5784 5786 5787 5786 5787 5790 5791 5793 5793 5790 5788 5786 5786 5784 5782 5780 5776 5771 5767 5762 5758 5753 5748 5743 5739 5734 5729 5725 5722 5717 5713 5708 5704 5701 5698 5696
5776 5777 5779 5779 5780 5782 5784 5784 5784 5785 5785 5787 5787 5789 5787 5786 5785 5783 5782 5780 5778 5777 5772 5767 5762 5757 5751 5745 5740 5736 5732 5727 5722 5718 5714 5710 5705 5700 5695 5691 5688 5685 5681
5776 5777 5778 5779 5781 5782 5784 5783 5781 5783 5784 5783 5783 5783 5782 5782 5781 5779 5777 5776 5773 5768 5762 5756 5751 5744 5739 5734 5729 5724 5719 5715 5711 5706 5702 5696 5691 5686 5682 5678 5673 5669 5665
5773 5774 5775 5776 5776 5776 5777 5777 5778 5778 5779 5780 5780 5780 5779 5777 5776 5775 5773 5768 5762 5756 5751 5746 5740 5735 5729 5723 5718 5713 5708 5704 5699 5694 5688 5683 5677 5672 5667 5662 5656 5651 5647
5773 5774 5774 5775 5775 5774 5774 5775 5777 5778 5777 5777 5777 5776 5774 5773 5770 5767 5762 5757 5753 5747 5741 5736 5729 5723 5718 5713 5707 5702 5697 5693 5687 5681 5675 5670 5664 5658 5652 5645 5639 5633 5628
5771 5772 5773 5774 5774 5774 5775 5775 5776 5775 5774 5772 5771 5769 5767 5764 5761 5757 5753 5748 5741 5734 5729 5723 5718 5713 5707 5701 5696 5690 5684 5678 5672 5669 5662 5655 5648 5641 5634 5626 5619 5613 5607
5770 5772 5771 5768 5770 5770 5772 5772 5771 5770 5767 5765 5763 5761 5757 5754 5751 5746 5741 5735 5729 5725 5720 5715 5708 5701 5695 5689 5683 5677 5670 5663 5657 5651 5646 5638 5630 5622 5614 5606 5597 5589 5583
5766 5767 5764 5759 5763 5764 5766 5766 5764 5763 5761 5759 5757 5754 5750 5746 5741 5737 5731 5726 5721 5717 5711 5705 5697 5690 5684 5678 5671 5664 5657 5649 5641 5634 5627 5620 5613 5604 5594 5583 5574 5566 5560
Wind_Speed
22 24 22 21 22 24 27 28 27 28 25 23 21 24 26 23 22 17 16 12 11 13 12 11 12 13 14 14 16 16 17 16 15 14 14 15 15 16 14 13 12 11 12
20 22 23 24 26 29 29 28 24 21 22 23 23 25 25 22 20 19 15 10 11 13 11 12 14 15 15 17 18 19 19 18 16 15 14 14 16 16 14 14 15 14 13
23 26 26 27 29 30 31 30 27 27 25 26 27 28 25 24 19 21 16 11 12 14 12 15 17 17 17 21 22 22 23 21 20 19 17 15 14 16 15 16 14 14 14
27 27 28 30 31 33 34 30 27 27 27 29 30 26 28 25 22 22 16 13 14 15 14 17 19 20 20 22 22 23 23 24 24 22 21 20 16 14 14 14 12 11 12
29 30 31 31 29 29 29 26 25 27 27 27 26 28 25 26 25 25 19 13 16 16 17 18 20 21 23 24 24 25 26 25 25 25 23 22 20 18 16 17 16 15 18
32 31 30 29 29 29 27 24 32 32 28 27 28 32 25 27 26 24 14 14 14 19 18 19 20 22 24 25 29 28 23 18 19 21 23 23 23 26 27 26 28 28 30
30 27 29 32 36 30 29 26 25 28 27 28 28 29 30 32 23 16 12 10 14 17 13 20 21 21 25 28 29 26 22 21 19 17 18 20 23 27 31 32 33 34 31
31 33 35 32 33 33 41 21 29 29 27 29 29 37 34 33 12 6 7 15 15 16 20 19 20 27 27 26 22 22 22 23 23 23 24 22 23 23 25 28 30 35 35
32 35 38 35 41 50 43 38 31 33 31 30 32 39 30 11 7 7 12 14 16 15 14 17 23 28 30 24 24 24 25 24 23 23 25 27 30 30 31 34 35 36 37
30 33 26 45 48 52 44 42 31 30 32 33 32 21 13 8 10 13 11 10 8 13 20 24 26 23 25 24 22 21 20 21 23 25 26 26 27 30 31 33 34 38 40
28 26 40 43 45 47 42 42 33 38 32 27 10 13 10 9 9 6 8 13 16 19 23 20 21 19 17 17 18 21 24 27 29 31 32 35 35 36 37 38 37 36 36
27 26 27 40 41 44 45 43 44 29 25 18 20 15 14 7 8 10 14 18 18 18 19 16 11 14 17 21 24 26 26 28 29 31 32 35 37 39 41 42 43 44 43
17 21 23 27 30 34 32 25 32 26 14 15 14 11 8 13 15 11 9 14 17 18 12 13 15 18 22 25 27 29 30 31 31 31 34 36 38 39 41 41 41 42 43
22 5 15 3 15 18 20 20 20 15 15 11 11 10 10 10 9 10 14 13 8 10 12 17 21 24 26 29 31 31 32 35 37 37 38 40 41 41 42 41 41 41 41
20 20 23 22 21 15 17 17 16 15 13 12 10 8 11 12 10 9 5 6 10 13 18 21 25 29 32 35 37 38 39 41 42 43 43 43 43 43 42 42 40 41 41
22 20 21 20 18 16 15 14 12 14 12 10 9 6 10 9 8 6 7 10 15 19 22 26 30 34 36 39 40 42 43 45 45 46 46 46 45 45 45 43 42 42 41
19 17 17 15 13 10 10 11 10 10 12 10 6 7 9 8 6 8 12 15 20 24 28 31 34 37 40 42 44 46 47 47 48 47 46 46 46 46 46 46 47 46 43
19 16 16 14 11 7 5 7 8 7 9 7 6 7 7 9 11 13 16 21 25 30 33 35 39 42 44 46 47 48 49 49 49 47 46 45 45 45 47 48 47 42 40
17 13 11 8 8 7 4 3 6 7 5 6 7 5 8 11 13 17 21 26 30 34 38 40 43 45 47 48 49 50 51 50 49 47 45 45 46 47 49 48 44 44 46
12 8 5 6 5 3 5 5 6 6 6 6 5 8 10 14 19 23 27 31 35 38 41 43 46 48 49 51 52 52 50 48 45 45 46 48 50 51 51 49 49 51 52
11 8 7 8 5 4 7 5 5 6 5 6 8 12 16 20 24 28 32 35 39 42 44 46 48 50 51 51 51 50 50 47 46 47 50 51 51 51 52 53 55 57 59
5 4 6 9 4 5 4 5 6 6 9 11 13 17 21 26 29 32 35 38 42 46 48 48 48 49 49 49 51 51 50 49 52 54 54 53 54 56 58 59 60 60 63
4 5 6 9 8 7 9 8 11 13 16 18 18 22 26 31 34 37 40 44 46 46 46 46 48 49 48 51 52 52 52 53 55 55 56 58 61 62 63 63 63 65 67
7 7 8 11 9 10 12 11 13 16 19 21 21 28 33 36 40 43 44 45 47 47 48 45 48 52 54 53 53 54 57 58 59 60 62 65 67 69 70 69 70 72 76
11 11 12 16 14 11 13 13 14 18 22 24 27 36 39 42 45 47 45 48 46 45 42 41 58 58 56 55 57 59 59 62 64 67 69 71 74 75 76 78 80 80 76
16 13 17 24 7 7 12 16 17 22 25 28 32 39 43 46 47 46 47 47 48 43 45 52 58 57 57 59 60 62 65 69 72 75 77 79 80 81 83 83 81 76 72
Wind_Direction
253 256 262 260 265 267 276 279 286 292 296 302 309 308 311 319 325 319 325 313 282 273 272 281 288 292 296 309 317 314 306 301 299 299 298 295 295 295 290 287 280 279 286
254 258 261 264 265 271 280 282 284 291 291 304 300 298 304 310 318 309 308 299 269 261 266 278 287 292 305 314 317 316 310 304 299 297 299 303 290 289 290 289 288 292 293
245 251 261 273 277 281 292 291 280 287 292 282 291 289 292 302 304 304 294 280 249 259 264 277 283 292 310 313 320 321 318 310 304 297 294 300 291 281 282 281 280 291 304
247 252 262 272 283 286 288 290 280 280 278 288 293 285 289 298 295 289 279 264 249 252 256 272 280 296 304 309 315 313 311 310 308 304 293 289 284 277 279 278 280 291 305
247 256 266 276 282 286 274 273 274 274 277 283 284 268 289 294 290 280 274 252 248 250 256 268 282 294 301 306 305 307 311 309 303 301 301 293 284 275 273 271 269 276 287
250 258 268 275 286 292 272 266 265 277 277 280 269 267 286 282 281 275 275 247 246 257 258 272 280 290 299 303 307 306 307 315 312 298 291 287 286 278 274 271 271 278 283
259 267 267 274 281 287 273 261 269 271 272 275 265 271 275 268 259 258 226 234 244 250 256 266 278 288 285 299 304 307 308 316 316 309 304 296 286 278 278 277 277 276 274
266 272 271 283 252 266 254 235 258 269 263 266 267 260 269 270 244 203 210 232 242 250 267 279 292 291 298 303 304 308 309 313 310 310 307 303 297 292 289 286 282 278 279
273 271 275 262 247 253 230 227 241 256 255 258 266 256 255 207 154 204 232 243 252 269 287 295 297 296 305 308 311 306 308 310 313 310 307 303 299 295 296 292 287 282 282
270 267 262 230 248 222 245 226 249 248 254 253 239 220 152 170 209 225 235 248 276 290 290 295 297 297 300 306 313 319 322 324 321 317 312 309 307 303 300 296 291 287 288
268 259 273 235 212 224 221 231 251 250 233 219 191 136 169 192 205 240 252 269 276 279 287 291 297 306 311 312 317 318 320 317 317 314 314 311 309 306 304 301 298 296 295
260 253 261 223 211 223 245 244 236 212 210 191 153 161 158 159 212 245 254 264 277 283 292 303 311 321 317 315 317 316 314 312 311 310 307 304 303 303 303 302 301 299 298
247 278 241 215 214 221 230 221 228 227 186 144 130 125 191 232 241 248 262 266 267 287 295 304 315 321 316 317 316 313 310 308 306 302 301 300 298 298 298 297 298 299 299
261 266 122 106 134 194 185 178 137 100 101 128 162 181 192 212 236 260 267 270 264 284 301 313 316 312 311 311 308 307 305 305 305 307 304 301 298 295 292 291 292 292 293
94 85 77 98 112 113 105 112 122 133 155 170 187 195 233 241 260 265 231 257 282 303 307 307 308 309 310 309 308 308 306 306 305 305 304 301 299 296 292 289 290 292 290
100 101 102 110 119 124 129 131 143 146 167 193 199 209 243 270 269 237 278 290 295 296 300 306 308 307 307 306 307 306 307 306 305 304 304 301 300 297 295 293 290 288 285
119 121 118 119 123 136 145 145 161 167 192 199 213 238 274 285 252 264 279 288 295 301 305 306 306 305 305 307 307 307 306 305 304 304 302 302 300 297 294 294 293 291 288
136 132 134 140 147 157 161 186 205 215 205 219 253 268 267 242 245 271 291 297 299 301 304 304 306 306 305 305 305 305 306 305 305 303 302 299 295 293 293 293 291 288 288
141 146 148 138 133 132 147 183 237 250 248 265 255 244 242 255 275 285 292 296 302 304 304 305 304 303 304 306 306 307 307 307 305 303 300 297 294 293 294 292 288 286 284
152 141 141 147 144 189 248 254 235 219 210 215 233 252 277 287 291 298 301 303 303 302 301 302 303 305 306 308 309 308 306 306 305 304 302 300 298 297 295 290 286 284 282
150 156 155 159 174 228 252 234 198 199 222 261 276 289 295 296 300 302 303 300 301 303 305 307 308 310 309 309 307 306 307 306 305 303 301 299 298 298 296 292 289 285 282
153 159 185 180 205 235 265 241 240 243 257 262 275 290 298 302 302 301 301 303 305 308 309 309 308 307 308 309 306 307 308 306 306 305 303 301 299 298 294 289 284 282 282
197 216 208 221 248 260 260 246 248 258 265 267 271 298 301 301 304 305 307 309 307 305 306 307 307 311 308 308 308 307 305 304 305 305 302 300 297 295 293 291 289 287 286
238 228 231 236 250 252 255 255 264 266 270 283 285 306 306 307 307 307 308 307 307 311 312 309 311 310 308 308 307 306 306 307 306 303 302 300 300 298 295 292 291 290 289
243 242 238 225 231 234 252 268 284 283 289 301 298 305 308 307 306 308 308 311 313 316 310 303 306 308 309 309 308 308 307 307 306 305 303 302 301 301 299 298 298 297 295
253 254 248 277 234 263 272 282 301 304 303 305 303 299 304 304 305 306 309 310 309 303 293 294 302 307 309 309 309 310 310 309 307 306 305 306 305 303 302 302 301 298 295